Regional Weather Roundup
Issued by NWS Goodland, KS

Home | Current Version | Previous Version | Text Only | Print | Product List | Glossary Off
Versions: 1 2 3 4 5 6 7 8 9 10 11 12 13 14 15 16 17 18 19 20 21 22 23 24 25 26 27 28 29 30 31 32 33 34 35 36 37 38 39 40 41 42 43 44 45 46 47 48 49 50

000
ASUS43 KGLD 050008
RWRGLD

GOODLAND FORECAST AREA HOURLY WEATHER ROUNDUP
NATIONAL WEATHER SERVICE GOODLAND KS
500 PM MST WED MAR 04 2015

...OFFICIAL OBSERVATIONS...

CITY           SKY/WX    TMP DP  RH WIND       PRES   REMARKS
GOODLAND KS    CLEAR     27   3  35 NW12      30.21R WCI  17
HILL CITY KS   CLEAR     31   2  29 N15       30.28R
IMPERIAL NEB     N/A     26   5  40 NW10      30.20S WCI  16
MCCOOK NEB     CLEAR     31   1  28 NW15      30.24R
AKRON CO       PTCLDY    22   7  52 W10       30.14S WCI  11
BURLINGTON CO  CLEAR     25   5  42 N6        30.19R
LIMON CO       CLEAR     13   2  61 W5        30.15R
$$

...UNOFFICIAL OBSERVATIONS...

CITY           SKY/WX    TMP DP  RH WIND       PRES   REMARKS
COLBY KS       CLEAR     28   7  40 NW12      30.25R WCI  18
GOVE KS          N/A     30  32 100 MISG        N/A
NORTON KS      PTCLDY    28  -2  26 NW9       30.25R
SHARON SPRINGS   N/A     27  10  47 CALM        N/A
KIT CARSON CO    N/A     24   8  49 MISG        N/A
YUMA CO          N/A     25   6  44 N7          N/A
$$



USA.gov is the U.S. government's official web portal to all federal, state and local government web resources and services.